Retour au catalogue

SL-14 R/B

ActifPO
NORAD 16496·ROCKET BODY·🇷🇺 Russia

Lancé Jan 17, 1986 depuis Plesetsk Cosmodrome

Loading…

Prochains Passages (prochaines 24 heures)

TLE

FraisSource: Space-Track

Époque: Sep 14, 2026, 11:35 UTC

1 16496U 86006B   26257.48288136  .00000339  00000-0  33021-4 0  9996
2 16496  82.5233  82.0710 0076402   7.8265 352.4123 14.87012502177269

Suivez SL-14 R/B en temps réel avec AllMySat

Download on the App Store